Other Public Products
Issued by NWS Charleston, SC

Current Version | Previous Version | Graphics & Text | Print | Product List | Glossary On
Versions: 1 2 3 4 5 6 7 8 9 10 11 12 13 14 15 16 17 18 19 20 21 22 23 24 25 26 27 28 29 30 31 32 33 34 35 36 37 38 39 40 41 42 43 44 45 46 47 48 49 50
000
FPUS82 KCHS 270712
OPUCHS

TEST...KCHS/KSAV Gateway Observations...TEST
National Weather Service Charleston SC
300 AM EDT TUE JUN 27 2017

NOTE: "fair" indicates few or no clouds below 12,000 feet with no
significant weather and/or obstructions to visibility.

SCZ050-WAZ558-NCZ071-TXZ119-213-PAZ071-DCZ001-FLZ074-172-MI076-
NYZ176-178-MAZ016-IL014-TNZ027-NJZ106-GAZ044-MD014-270800-

...Gateway Observations for Charleston International...

CITY           SKY/WX    TMP DP  RH WIND       PRES   REMARKS
Chas Airport   CLOUDY    69  66  90 N5        30.02F
Seattle        PTCLDY    56  50  80 SW10      30.01R
Charlotte      MOCLDY    63  59  87 NW3       30.05S
Dallas DFW     PTCLDY    78  71  79 SE6       30.02F
Dallas Love    MOCLDY    79  68  69 SE8       30.03F
Philladelphia  CLOUDY    64  57  78 NW8       30.01R
Wash National  PTCLDY    71  51  49 N7        29.99S
Baltimore      CLOUDY    68  53  58 CALM      29.98S
Miami          PTCLDY    83  73  72 E3        30.01F
Detroit        PTCLDY    53  46  77 W10       30.00S
Newark         MOCLDY    68  50  52 N8        29.99S
Laguardia      NOT AVBL
J F K          NOT AVBL
Boston Logan   PTCLDY    65  52  62 S3        29.99R
Ft. Lauderdale PTCLDY    81  73  76 CALM      30.01F
Chicago O`Hare PTCLDY    56  46  69 W7        30.09F
Chicago Midway CLEAR     57  46  66 NW5       30.09F
Houston Bush   CLOUDY    75  71  87 SE5       30.02S
Houston Hobby  CLOUDY    76  73  91 NE3       30.01S
Nashville      CLOUDY    69  55  60 CALM      30.11S
Atlanta        MOCLDY    69  60  73 NW7       30.08F

$$

GAZ044-118-TXZ119-213-NCZ071-DCZ001-MDZ014-506-PAZ021-071-NJZ106-
NYZ176-178-MAZ106-OHZ011-021-055-MIZ076-KYZ091-ILZ014-INZ047-
MNZ060-ONZ431-270800-

...Gateway Observations for Savannah International...

CITY           SKY/WX    TMP DP  RH WIND       PRES   REMARKS
Savannah Arpt  CLOUDY    74  72  93 CALM      30.03S
Atlanta        MOCLDY    69  60  73 NW7       30.08F
Charlotte      MOCLDY    63  59  87 NW3       30.05S
Dallas DFW     PTCLDY    78  71  79 SE6       30.02F
Houston Bush   CLOUDY    75  71  87 SE5       30.02S
Wash National  PTCLDY    71  51  49 N7        29.99S
Wash Dulles    PTCLDY    67  48  50 NW3       30.00S
Baltimore      CLOUDY    68  53  58 CALM      29.98S
Philadelphia   CLOUDY    64  57  78 NW8       30.01R
Newark         MOCLDY    68  50  52 N8        29.99S
Laguardia      NOT AVBL
J F K          NOT AVBL
Boston         PTCLDY    65  52  62 S3        29.99R
Pittsburg      PTCLDY    58  51  78 SW3       30.02R
Akron          MOCLDY    56  48  74 SW7       30.01F
Cleveland      MOCLDY    56  51  84 SW8       30.01S
Cincinnati     CLEAR     56  50  80 N6        30.10R
Columbus       MOCLDY    54  53  95 SW5       30.06R
Detroit        PTCLDY    53  46  77 W10       30.00S
Chicago O`Hare PTCLDY    56  46  69 W7        30.09F
Minneapolis    CLEAR     58  47  66 CALM      30.10F
Indianapolis   PTCLDY    53  49  86 W6        30.11S
Toronto Canada PTCLDY    54  46  76 W3        29.89F

$$




USA.gov is the U.S. government's official web portal to all federal, state and local government web resources and services.